AC4VM Weather Reports


Display with metric or nautical units.
time (UTC)temp
F
wind
direction
speed
MPH
gust
MPH
rain 1hr
in
rain 24hr
in
rain mn
in
humidity
%
barometer
mb
20260509131555 58 243 1.0 5.0 0.00 0.00 0.00 87 1010.5
20260509130051 58 246 2.0 5.0 0.00 0.00 0.00 88 1010.6
20260509124544 57 85 0.0 2.0 0.00 0.00 0.00 91 1010.2
20260509123041 56 117 0.0 2.0 0.00 0.00 0.00 91 1010.4
20260509121551 54 281 0.0 2.0 0.00 0.00 0.00 91 1010.5
20260509120037 53 341 0.0 0.0 0.00 0.00 0.00 92 1010.4
20260509114534 53 341 0.0 1.0 0.00 0.00 0.00 93 1010.6
20260509113031 52 72 0.0 0.0 0.00 0.00 0.00 93 1010.5
20260509111529 51 73 0.0 0.0 0.00 0.00 0.00 94 1010.1
20260509110028 50 73 0.0 0.0 0.00 0.00 0.00 93 1010.2
20260509104525 50 73 0.0 0.0 0.00 0.00 0.00 93 1010.2
20260509103025 49 73 0.0 0.0 0.00 0.00 0.00 93 1010.4
20260509101525 49 73 0.0 0.0 0.00 0.00 0.00 93 1010.4
20260509100028 49 229 0.0 1.0 0.00 0.00 0.00 94 1010.5
20260509094521 49 0.0 0.0 0.00 0.00 0.00 94 1010.3
20260509093018 48 285 0.0 0.0 0.00 0.00 0.00 94 1010.2
20260509091517 48 285 0.0 0.0 0.00 0.00 0.00 94 1010.3
20260509090017 47 285 0.0 0.0 0.00 0.00 0.00 93 1010.1
20260509084517 47 285 0.0 0.0 0.00 0.00 0.00 93 1010.0
20260509083014 48 285 0.0 0.0 0.00 0.00 0.00 94 1010.0
20260509081513 48 245 0.0 0.0 0.00 0.00 0.00 93 1010.1
20260509080013 47 120 0.0 0.0 0.00 0.00 0.00 93 1009.9
20260509074513 47 275 0.0 0.0 0.00 0.00 0.00 93 1010.0
20260509073010 47 275 0.0 0.0 0.00 0.00 0.00 92 1010.0
20260509071509 47 0.0 0.0 0.00 0.00 0.00 93 1010.0
20260509070004 47 0.0 0.0 0.00 0.00 0.00 93 1010.1
20260509064602 48 257 0.0 0.0 0.00 0.00 0.00 92 1010.2
20260509063106 48 257 0.0 0.0 0.00 0.00 0.00 91 1010.1
20260509061557 49 257 0.0 0.0 0.00 0.00 0.00 92 1010.3
20260509060101 48 257 0.0 0.0 0.00 0.00 0.00 91 1010.3
20260509054555 48 257 0.0 0.0 0.00 0.00 0.00 91 1010.6
20260509053117 49 244 0.0 4.0 0.00 0.00 0.00 90 1010.9
20260509051548 49 253 1.0 4.0 0.00 0.00 0.00 90 1011.0
20260509050046 49 253 0.0 0.0 0.00 0.00 0.00 90 1011.0
20260509044543 49 253 0.0 0.0 0.00 0.00 0.00 89 1011.3
20260509043100 50 253 0.0 0.0 0.00 0.00 0.00 90 1011.5
20260509041554 50 253 0.0 0.0 0.00 0.00 0.00 89 1011.5
20260509040036 50 253 0.0 0.0 0.00 0.00 0.00 89 1011.6
20260509034544 51 253 0.0 0.0 0.00 0.00 0.00 88 1011.8
20260509033035 51 253 0.0 0.0 0.00 0.00 0.00 87 1011.8
20260509031534 51 253 0.0 0.0 0.00 0.00 0.00 87 1011.6
20260509030034 53 253 0.0 0.0 0.00 0.00 0.00 82 1011.7
20260509024535 53 253 0.0 0.0 0.00 0.00 0.00 81 1011.7
20260509023036 53 253 0.0 0.0 0.00 0.00 0.00 82 1011.7
20260509021533 55 252 0.0 0.0 0.00 0.00 0.00 75 1011.7
20260509020034 55 233 0.0 0.0 0.00 0.00 0.00 74 1011.7
20260509014532 56 233 0.0 0.0 0.00 0.00 0.00 74 1011.5
20260509013043 57 233 0.0 2.0 0.00 0.00 0.00 73 1011.6
20260509011534 57 233 0.0 1.0 0.00 0.00 0.00 74 1011.4
20260509010046 59 233 0.0 2.0 0.00 0.00 0.00 61 1011.3
20260509004530 61 233 0.0 2.0 0.00 0.00 0.00 57 1011.2
20260509003030 61 233 0.0 0.0 0.00 0.00 0.00 59 1011.3
20260509001529 63 233 0.0 1.0 0.00 0.00 0.00 52 1011.2
20260509000028 64 233 1.0 2.0 0.00 0.00 0.00 47 1011.3
20260508234528 65 233 1.0 4.0 0.00 0.00 0.00 50 1011.4
20260508233027 67 225 2.0 6.0 0.00 0.00 0.00 48 1011.3
20260508231527 67 242 0.0 5.0 0.00 0.00 0.00 46 1011.4
20260508230036 68 239 3.0 6.0 0.00 0.00 0.00 44 1011.3
20260508224535 68 244 2.0 5.0 0.00 0.00 0.00 45 1011.3
20260508223025 68 275 3.0 5.0 0.00 0.00 0.00 43 1011.3
20260508221537 68 266 5.0 12.0 0.00 0.00 0.00 43 1011.5
20260508220022 68 231 3.0 10.0 0.00 0.00 0.00 42 1011.5
20260508214521 68 242 1.0 8.0 0.00 0.00 0.00 45 1011.7
20260508213024 69 266 1.0 6.0 0.00 0.00 0.00 45 1011.8
20260508211519 68 252 1.0 4.0 0.00 0.00 0.00 44 1011.9
20260508210019 69 297 2.0 10.0 0.00 0.00 0.00 42 1011.8
20260508204517 70 238 3.0 11.0 0.00 0.00 0.00 43 1011.8
20260508203014 69 241 1.0 6.0 0.00 0.00 0.00 38 1012.2
20260508201514 68 237 3.0 7.0 0.00 0.00 0.00 41 1012.2
20260508200014 68 271 1.0 6.0 0.00 0.00 0.00 43 1012.3
20260508194509 68 89 3.0 8.0 0.00 0.00 0.00 42 1012.6
20260508193007 68 269 1.0 5.0 0.00 0.00 0.00 41 1013.0
20260508191503 69 269 3.0 11.0 0.00 0.00 0.00 47 1013.6
20260508190001 69 217 2.0 10.0 0.00 0.00 0.00 44 1013.9
20260508184559 68 281 1.0 8.0 0.00 0.00 0.00 41 1013.9
20260508183057 68 102 7.0 13.0 0.00 0.00 0.00 39 1014.2
20260508181554 67 114 1.0 9.0 0.00 0.00 0.00 44 1014.3
20260508180053 67 100 3.0 7.0 0.00 0.00 0.00 45 1014.6
20260508174553 66 81 2.0 8.0 0.00 0.00 0.00 44 1014.5
20260508173051 65 223 0.0 4.0 0.00 0.00 0.00 48 1014.8
20260508171555 65 260 3.0 7.0 0.00 0.00 0.00 43 1015.1
20260508170057 66 285 4.0 8.0 0.00 0.00 0.00 45 1015.5
20260508164550 65 229 1.0 7.0 0.00 0.00 0.00 48 1015.8
20260508163048 65 62 4.0 7.0 0.00 0.00 0.00 50 1015.8
20260508161546 64 358 1.0 8.0 0.00 0.00 0.00 46 1016.2
20260508160048 64 86 3.0 6.0 0.00 0.00 0.00 49 1016.5
20260508154544 63 96 3.0 5.0 0.00 0.00 0.00 50 1016.5
20260508153043 63 85 3.0 7.0 0.00 0.00 0.00 50 1016.6
20260508151541 62 262 3.0 5.0 0.00 0.00 0.00 52 1016.9
20260508150042 61 234 1.0 7.0 0.00 0.00 0.00 58 1017.1
20260508144538 60 317 0.0 5.0 0.00 0.00 0.00 62 1017.0
20260508143035 60 93 2.0 4.0 0.00 0.00 0.00 67 1017.0
20260508141532 59 21 2.0 5.0 0.00 0.00 0.00 68 1017.2
20260508140030 58 53 0.0 3.0 0.00 0.00 0.00 73 1017.4
20260508134527 57 287 1.0 3.0 0.00 0.00 0.00 72 1017.4
20260508133027 56 10 2.0 4.0 0.00 0.00 0.00 73 1017.4